Location: Linz
(48.3300°N, 14.3000°E)
Time: 17:02:50
(UTC+01:00)

OTV 5 (USA 277) - Pass Details

Date: 11 November 2017
Orbit: 404 x 417 km, 43.0° (Epoch: 07 September)

Event Time Altitude Azimuth Distance (km) Brightness Sun altitude
Exits shadow 05:55:13 - 233° (SW) 1,558 ? -11.6°
Reaches altitude 10° 05:55:30 10° 231° (SW) 1,454 ? -11.6°
Maximum altitude 05:58:22 28° 170° (S) 793 ? -11.1°
Drops below altitude 10° 06:01:14 10° 109° (ESE) 1,457 ? -10.6°
Sets 06:03:30 0° 98° (E) 2,319 ? -10.3°
